TimeCDT,TemperatureF,Dew PointF,Humidity,Sea Level PressureIn,VisibilityMPH,Wind Direction,Wind SpeedMPH,Gust SpeedMPH,PrecipitationIn,Events,Conditions,WindDirDegrees,DateUTC
12:05 AM,62.6,62.6,100,30.07,0.8,NNW,19.6,24.2,0.44,Rain-Thunderstorm,Heavy Thunderstorms and Rain,340,2013-06-17 05:05:00
12:12 AM,62.6,62.6,100,30.03,1.8,North,18.4,25.3,0.57,Rain-Thunderstorm,Heavy Thunderstorms and Rain,360,2013-06-17 05:12:00
12:19 AM,62.6,62.6,100,30.03,2.5,North,11.5,25.3,0.65,Rain-Thunderstorm,Heavy Thunderstorms and Rain,10,2013-06-17 05:19:00
12:27 AM,62.6,62.6,100,30.02,5.0,NE,11.5,18.4,0.67,Rain-Thunderstorm,Rain,40,2013-06-17 05:27:00
12:53 AM,64.0,62.1,93,29.87,10.0,NE,12.7,24.2,0.68,Rain-Thunderstorm,Light Rain,50,2013-06-17 05:53:00
1:42 AM,64.4,62.6,94,29.87,10.0,ESE,11.5,-,0.01,Rain-Thunderstorm,Rain,110,2013-06-17 06:42:00
1:53 AM,64.0,63.0,96,29.86,10.0,Calm,Calm,-,0.01,Rain-Thunderstorm,Light Rain,0,2013-06-17 06:53:00
2:07 AM,64.4,62.6,94,29.97,10.0,West,8.1,16.1,0.00,Rain,Light Rain,260,2013-06-17 07:07:00
2:53 AM,64.9,63.0,93,29.95,10.0,WNW,4.6,-,0.00,,Clear,290,2013-06-17 07:53:00
3:53 AM,66.0,63.0,90,29.92,10.0,Calm,Calm,-,N/A,,Clear,0,2013-06-17 08:53:00
4:53 AM,64.9,63.0,93,29.89,10.0,NNE,6.9,-,N/A,,Clear,30,2013-06-17 09:53:00
5:53 AM,64.0,63.0,96,29.92,10.0,North,4.6,-,N/A,,Clear,360,2013-06-17 10:53:00
6:53 AM,64.0,63.0,96,29.92,10.0,North,6.9,-,N/A,,Clear,350,2013-06-17 11:53:00
7:53 AM,64.9,63.0,93,29.93,10.0,NW,6.9,-,N/A,,Clear,310,2013-06-17 12:53:00
8:53 AM,68.0,63.0,84,29.95,10.0,NW,10.4,-,N/A,,Clear,320,2013-06-17 13:53:00
9:53 AM,71.1,63.0,75,29.97,10.0,NNW,11.5,-,N/A,,Partly Cloudy,340,2013-06-17 14:53:00
10:53 AM,75.0,64.9,71,29.99,10.0,North,12.7,20.7,N/A,,Scattered Clouds,10,2013-06-17 15:53:00
11:12 AM,75.2,62.6,65,30.06,10.0,North,13.8,23.0,N/A,,Mostly Cloudy,10,2013-06-17 16:12:00
11:33 AM,75.2,64.4,69,30.07,10.0,NNE,13.8,21.9,N/A,,Scattered Clouds,20,2013-06-17 16:33:00
11:53 AM,77.0,64.0,64,30.01,10.0,NNE,15.0,-,N/A,,Scattered Clouds,20,2013-06-17 16:53:00
12:53 PM,79.0,64.0,60,30.00,10.0,NE,10.4,17.3,N/A,,Scattered Clouds,40,2013-06-17 17:53:00
2:53 PM,82.9,64.0,53,29.96,10.0,ENE,9.2,-,N/A,,Clear,60,2013-06-17 19:53:00
3:53 PM,82.9,62.1,49,29.94,10.0,Variable,4.6,-,N/A,,Clear,0,2013-06-17 20:53:00
4:53 PM,84.9,60.1,43,29.92,10.0,NNE,5.8,-,N/A,,Clear,30,2013-06-17 21:53:00
5:53 PM,84.9,60.1,43,29.90,10.0,NE,10.4,-,N/A,,Clear,50,2013-06-17 22:53:00
6:53 PM,84.0,60.1,44,29.91,10.0,NE,9.2,-,N/A,,Clear,50,2013-06-17 23:53:00
7:53 PM,82.0,62.1,51,29.91,10.0,NE,6.9,-,N/A,,Clear,40,2013-06-18 00:53:00
8:53 PM,75.9,63.0,64,29.91,10.0,ENE,6.9,-,N/A,,Clear,70,2013-06-18 01:53:00
9:53 PM,73.9,64.9,73,29.98,10.0,SE,3.5,-,N/A,,Mostly Cloudy,130,2013-06-18 02:53:00
10:53 PM,72.0,64.9,78,30.00,10.0,ESE,3.5,-,N/A,,Partly Cloudy,120,2013-06-18 03:53:00
11:53 PM,71.1,64.9,81,30.00,10.0,Calm,Calm,-,N/A,,Clear,0,2013-06-18 04:53:00